Location: Bühlhof
(48.7849°N, 8.6361°E)
Time: 20:50:44
(UTC+00:00)

OceanSat 1 rocket - Pass Details

Date: 19 January 2026
Orbit: 689 x 725 km, 98.6° (Epoch: 16 February)

Event Time Altitude Azimuth Distance (km) Brightness Sun altitude
Rises 17:49:28 0° 156° (SSE) 3,058 7.8 -17.2°
Reaches altitude 10° 17:51:42 10° 153° (SSE) 2,149 7.0 -17.6°
Maximum altitude 17:56:22 67° 72° (ENE) 760 4.5 -18.3°
Drops below altitude 10° 18:01:07 10° 350° (N) 2,187 7.2 -19.1°
Sets 18:03:24 0° 348° (NNW) 3,116 8.0 -19.4°
